Douglas, WY

10:20 PM MDT on June 25, 2017 (GMT -0600)
Converse County

Weather History for KDGW - October, 2013

Change the Weather History Date:

Sunday, October 6, 2013

  Actual Average Record
Temperature  
Mean Temperature 46 °F 49 °F  
Max Temperature 58 °F 65 °F 83 °F (1999)
Min Temperature 33 °F 33 °F 20 °F (2012)
Degree Days  
Heating Degree Days 19 16  
Month to date heating degree days 127 90  
Since 1 July heating degree days 265 359  
Cooling Degree Days 0 0  
Month to date cooling degree days 0 0  
Year to date cooling degree days 739 486  
Moisture  
Dew Point 31 °F    
Average Humidity 63    
Maximum Humidity 85    
Minimum Humidity 40    
Precipitation  
Precipitation 0.00 in 0.05 in 0.53 in (2011)
Month to date precipitation 0.01 0.27  
Year to date precipitation 7.27 11.55  
Sea Level Pressure  
Sea Level Pressure 30.25 in    
Wind  
Wind Speed 10 mph (NW)    
Max Wind Speed 20 mph    
Max Gust Speed 23 mph    
Visibility 10 miles    
Events      
T = Trace of Precipitation, MM = Missing Value Source: NWS Daily Summary

Daily Weather History Graph

Daily Weather History Graph

Search for Another Location

Airport or City:

Trip Planner

Search our weather history database for the weather conditions in past years. The results will help you decide how hot, cold, wet, or windy it might be!

Date:

Astronomy

Oct. 06, 2013 Rise Set
Actual Time 7:04 AM MDT 6:33 PM MDT
Civil Twilight 6:36 AM MDT 7:01 PM MDT
Nautical Twilight 6:03 AM MDT 7:34 PM MDT
Astronomical Twilight 5:30 AM MDT 8:07 PM MDT
Moon 8:55 AM MDT (10/6) 7:31 PM MDT (10/6)
Length of Visible Light 12h 25m
Length of Day
11h 28m
Waxing Crescent, 4% of the Moon is Illuminated
Oct 6
Waxing Crescent
Oct 11
First Quarter
Oct 18
Full
Oct 26
Last Quarter
Nov 3
New

Hourly Weather History & Observations

Time (MDT) Temp. Windchill Dew Point Humidity Pressure Visibility Wind Dir Wind Speed Gust Speed Precip Events Conditions
12:53 AM 34.0 °F 26.6 °F 25.0 °F 70% 30.30 in 10.0 mi NNW 9.2 mph - N/A   Clear
1:53 AM 35.1 °F 27.9 °F 25.0 °F 67% 30.30 in 10.0 mi NW 9.2 mph - N/A   Clear
2:53 AM 36.0 °F 28.0 °F 26.1 °F 67% 30.29 in 10.0 mi NW 11.5 mph - N/A   Clear
3:53 AM 35.1 °F 27.9 °F 26.1 °F 70% 30.28 in 10.0 mi NW 9.2 mph - N/A   Clear
4:53 AM 36.0 °F 27.1 °F 27.0 °F 70% 30.28 in 10.0 mi NW 13.8 mph - N/A   Clear
5:53 AM 36.0 °F 27.1 °F 27.0 °F 70% 30.29 in 10.0 mi WNW 13.8 mph - 0.01 in   Clear
6:53 AM 34.0 °F 26.6 °F 27.0 °F 75% 30.30 in 10.0 mi NW 9.2 mph - N/A   Clear
7:53 AM 36.0 °F 29.0 °F 28.0 °F 73% 30.30 in 10.0 mi NW 9.2 mph - N/A   Clear
8:53 AM 39.9 °F 31.4 °F 28.9 °F 65% 30.30 in 10.0 mi NW 16.1 mph - N/A   Clear
9:53 AM 43.0 °F 36.4 °F 30.9 °F 62% 30.29 in 10.0 mi NW 12.7 mph - N/A   Clear
10:53 AM 48.0 °F - 33.1 °F 56% 30.28 in 10.0 mi WNW 12.7 mph - N/A   Clear
11:53 AM 51.1 °F - 34.0 °F 52% 30.28 in 10.0 mi NW 18.4 mph - N/A   Clear
12:53 PM 53.1 °F - 35.1 °F 50% 30.26 in 10.0 mi NW 17.3 mph - N/A   Clear
1:53 PM 55.0 °F - 35.1 °F 47% 30.23 in 10.0 mi NW 16.1 mph - N/A   Clear
2:53 PM 57.0 °F - 36.0 °F 45% 30.20 in 10.0 mi WNW 15.0 mph - N/A   Clear
3:53 PM 57.9 °F - 34.0 °F 41% 30.19 in 10.0 mi WNW 16.1 mph - N/A   Clear
4:53 PM 57.0 °F - 34.0 °F 42% 30.19 in 10.0 mi NW 16.1 mph - N/A   Clear
5:53 PM 54.0 °F - 36.0 °F 51% 30.20 in 10.0 mi WNW 5.8 mph - N/A   Clear
6:53 PM 48.9 °F - 34.0 °F 56% 30.22 in 10.0 mi West 4.6 mph - N/A   Clear
7:53 PM 45.0 °F 41.8 °F 34.0 °F 65% 30.23 in 10.0 mi NW 5.8 mph - N/A   Clear
8:53 PM 43.0 °F 41.3 °F 33.1 °F 68% 30.21 in 10.0 mi West 3.5 mph - N/A   Clear
9:53 PM 37.0 °F - 32.0 °F 82% 30.22 in 10.0 mi Calm Calm - N/A   Clear
10:53 PM 37.9 °F - 33.1 °F 83% 30.19 in 10.0 mi Calm Calm - N/A   Clear
11:53 PM 35.1 °F - 30.9 °F 85% 30.17 in 10.0 mi Calm Calm - N/A   Clear